AIC1612 VOMM-VOBL

Flight info

Callsign AIC1612
Flight time 0h 35m
Altitude 24000
Route MMV W117 XIVIL XIVIL7E
Aircraft B77W/H-SDE1E2E3FGHIJ2J3J4J5M1RWXY/LB1D1

Departure

Time 2026-05-09 07:04
Airport Chennai International Airport (VOMM)

Arrival

Time 2026-05-09 07:39
Airport Kempegowda International Airport Bengaluru (VOBL)
Time Latitude Longitude Altitude Speed Heading
2026-05-09 06:52 12.98367 80.15924 59 ft 0 kts 338°
2026-05-09 06:58 12.98364 80.15926 59 ft 2 kts 338°
2026-05-09 06:58 12.98349 80.15932 50 ft 2 kts 338°
2026-05-09 06:58 12.98334 80.15938 53 ft 2 kts 338°
2026-05-09 06:58 12.98319 80.15944 50 ft 2 kts 338°
2026-05-09 06:59 12.98304 80.15951 50 ft 2 kts 316°
2026-05-09 06:59 12.98297 80.15961 50 ft 0 kts 254°
2026-05-09 07:00 12.98293 80.15948 50 ft 4 kts 254°
2026-05-09 07:00 12.98287 80.15911 50 ft 7 kts 271°
2026-05-09 07:00 12.98301 80.15856 52 ft 9 kts 289°
2026-05-09 07:01 12.98326 80.15781 54 ft 13 kts 288°
2026-05-09 07:01 12.98352 80.15689 57 ft 13 kts 285°
2026-05-09 07:01 12.98376 80.15596 56 ft 13 kts 284°
2026-05-09 07:01 12.98383 80.15571 55 ft 0 kts 285°
2026-05-09 07:02 12.98383 80.15569 54 ft 1 kts 285°
2026-05-09 07:02 12.98389 80.15548 58 ft 5 kts 285°
2026-05-09 07:02 12.98401 80.15502 51 ft 8 kts 285°
2026-05-09 07:03 12.98432 80.15445 51 ft 10 kts 325°
2026-05-09 07:03 12.98479 80.15460 50 ft 6 kts 69°
2026-05-09 07:03 12.98494 80.15507 50 ft 11 kts 70°
2026-05-09 07:03 12.98616 80.15833 54 ft 94 kts 69°
2026-05-09 07:04 12.98945 80.16722 61 ft 168 kts 72°
2026-05-09 07:04 12.99385 80.17930 621 ft 172 kts 71°
2026-05-09 07:04 12.99944 80.18983 1562 ft 174 kts 39°
2026-05-09 07:04 13.01059 80.19490 2122 ft 188 kts 11°
2026-05-09 07:05 13.02434 80.19244 2335 ft 222 kts 328°
2026-05-09 07:05 13.03464 80.17936 2647 ft 258 kts 290°
2026-05-09 07:05 13.03568 80.16088 3327 ft 268 kts 261°
2026-05-09 07:05 13.03224 80.14199 4239 ft 271 kts 260°
2026-05-09 07:06 13.02975 80.12277 5301 ft 273 kts 265°
2026-05-09 07:06 13.02885 80.10301 6273 ft 278 kts 270°
2026-05-09 07:06 13.02942 80.08310 7192 ft 280 kts 274°
2026-05-09 07:06 13.03117 80.06300 8064 ft 285 kts 277°
2026-05-09 07:07 13.03385 80.04262 8844 ft 293 kts 279°
2026-05-09 07:07 13.03729 80.02171 9711 ft 300 kts 281°
2026-05-09 07:07 13.04129 80.00045 10420 ft 311 kts 282°
2026-05-09 07:07 13.04587 79.97805 10675 ft 340 kts 283°
2026-05-09 07:08 13.05124 79.95327 10871 ft 369 kts 283°
2026-05-09 07:08 13.05714 79.92707 11530 ft 383 kts 284°
2026-05-09 07:08 13.06333 79.90018 12439 ft 390 kts 284°
2026-05-09 07:08 13.06966 79.87309 13543 ft 392 kts 284°
2026-05-09 07:09 13.07610 79.84572 14466 ft 398 kts 284°
2026-05-09 07:09 13.08270 79.81784 15275 ft 404 kts 284°
2026-05-09 07:09 13.08937 79.78966 16142 ft 409 kts 284°
2026-05-09 07:09 13.09612 79.76121 17038 ft 413 kts 284°
2026-05-09 07:10 13.10292 79.73244 17868 ft 418 kts 284°
2026-05-09 07:10 13.10980 79.70336 18639 ft 422 kts 284°
2026-05-09 07:10 13.11677 79.67385 19286 ft 429 kts 284°
2026-05-09 07:10 13.12382 79.64397 20018 ft 431 kts 284°
2026-05-09 07:11 13.13088 79.61407 20889 ft 431 kts 284°
2026-05-09 07:11 13.13794 79.58408 21708 ft 433 kts 284°
2026-05-09 07:11 13.14504 79.55396 22517 ft 436 kts 284°
2026-05-09 07:11 13.15219 79.52363 23318 ft 437 kts 284°
2026-05-09 07:12 13.15931 79.49337 23797 ft 436 kts 284°
2026-05-09 07:12 13.16643 79.46311 23875 ft 437 kts 284°
2026-05-09 07:12 13.17357 79.43276 23888 ft 438 kts 284°
2026-05-09 07:12 13.18068 79.40249 23889 ft 436 kts 284°
2026-05-09 07:13 13.18540 79.38241 23894 ft 436 kts 284°
2026-05-09 07:13 13.19491 79.34190 23899 ft 437 kts 284°
2026-05-09 07:13 13.20203 79.31155 23908 ft 438 kts 284°
2026-05-09 07:13 13.20914 79.28120 23911 ft 438 kts 284°
2026-05-09 07:14 13.21388 79.26100 23905 ft 439 kts 284°
2026-05-09 07:14 13.22101 79.23054 23905 ft 440 kts 284°
2026-05-09 07:14 13.22817 79.19996 23908 ft 441 kts 284°
2026-05-09 07:14 13.23533 79.16938 23906 ft 440 kts 284°
2026-05-09 07:15 13.24245 79.13895 23908 ft 437 kts 284°
2026-05-09 07:15 13.24951 79.10873 23908 ft 434 kts 284°
2026-05-09 07:15 13.25655 79.07863 23913 ft 433 kts 284°
2026-05-09 07:15 13.26356 79.04860 23916 ft 433 kts 284°
2026-05-09 07:16 13.27059 79.01848 23921 ft 434 kts 284°
2026-05-09 07:16 13.27765 78.98821 23935 ft 438 kts 284°
2026-05-09 07:16 13.28476 78.95769 23930 ft 441 kts 284°
2026-05-09 07:16 13.29139 78.92686 23932 ft 445 kts 281°
2026-05-09 07:17 13.29510 78.89535 23921 ft 443 kts 273°
2026-05-09 07:17 13.29555 78.86377 23929 ft 442 kts 271°
2026-05-09 07:17 13.29567 78.83207 23938 ft 447 kts 271°
2026-05-09 07:17 13.29592 78.80027 23933 ft 442 kts 271°
2026-05-09 07:18 13.29625 78.76892 23941 ft 437 kts 271°
2026-05-09 07:18 13.29665 78.73795 23936 ft 432 kts 271°
2026-05-09 07:18 13.29707 78.70730 23931 ft 428 kts 271°
2026-05-09 07:18 13.29751 78.67663 23948 ft 432 kts 272°
2026-05-09 07:19 13.29796 78.64569 23942 ft 435 kts 271°
2026-05-09 07:19 13.29841 78.61488 23956 ft 438 kts 271°
2026-05-09 07:19 13.29885 78.58357 23942 ft 438 kts 271°
2026-05-09 07:19 13.29928 78.55232 23949 ft 437 kts 272°
2026-05-09 07:20 13.29970 78.52113 23951 ft 436 kts 272°
2026-05-09 07:20 13.30012 78.49011 23886 ft 432 kts 272°
2026-05-09 07:20 13.30054 78.45915 23386 ft 434 kts 272°
2026-05-09 07:20 13.30095 78.42830 22888 ft 431 kts 272°
2026-05-09 07:21 13.30135 78.39768 22382 ft 427 kts 272°
2026-05-09 07:21 13.30175 78.36730 21889 ft 423 kts 271°
2026-05-09 07:21 13.30214 78.33731 21411 ft 419 kts 271°
2026-05-09 07:21 13.30252 78.30781 20937 ft 416 kts 271°
2026-05-09 07:22 13.30290 78.27817 20466 ft 412 kts 271°
2026-05-09 07:22 13.30276 78.24916 20001 ft 403 kts 268°
2026-05-09 07:22 13.30198 78.22050 19524 ft 400 kts 270°
2026-05-09 07:22 13.30233 78.20078 19199 ft 399 kts 272°
2026-05-09 07:23 13.30320 78.17237 18734 ft 396 kts 272°
2026-05-09 07:23 13.30405 78.14420 18268 ft 394 kts 271°
2026-05-09 07:23 13.30477 78.11614 17737 ft 392 kts 271°
2026-05-09 07:23 13.30519 78.08833 17257 ft 388 kts 270°
2026-05-09 07:24 13.30491 78.06103 16798 ft 385 kts 270°
2026-05-09 07:24 13.30486 78.05523 16699 ft 384 kts 270°
2026-05-09 07:24 13.30488 78.04608 16548 ft 383 kts 271°
2026-05-09 07:24 13.30544 78.01881 16094 ft 381 kts 272°
2026-05-09 07:25 13.30621 77.99178 15642 ft 378 kts 272°
2026-05-09 07:25 13.30691 77.96493 15342 ft 372 kts 272°
2026-05-09 07:25 13.30748 77.93836 14800 ft 375 kts 272°
2026-05-09 07:25 13.30789 77.91508 14304 ft 377 kts 271°
2026-05-09 07:26 13.30827 77.89054 13797 ft 379 kts 272°
2026-05-09 07:26 13.30864 77.86345 13177 ft 380 kts 271°
2026-05-09 07:26 13.30901 77.83625 12565 ft 381 kts 271°
2026-05-09 07:26 13.30935 77.80992 12171 ft 360 kts 271°
2026-05-09 07:27 13.30968 77.78459 12021 ft 353 kts 271°
2026-05-09 07:27 13.30994 77.75979 11942 ft 340 kts 271°
2026-05-09 07:27 13.31012 77.73626 11494 ft 322 kts 271°
2026-05-09 07:27 13.31030 77.71352 11031 ft 319 kts 271°
2026-05-09 07:28 13.31050 77.69059 10590 ft 323 kts 271°
2026-05-09 07:28 13.31069 77.66737 10158 ft 326 kts 271°
2026-05-09 07:28 13.31086 77.64430 9626 ft 316 kts 271°
2026-05-09 07:28 13.31103 77.62235 9106 ft 301 kts 271°
2026-05-09 07:29 13.31118 77.60136 8662 ft 285 kts 271°
2026-05-09 07:29 13.31111 77.58156 8261 ft 270 kts 269°
2026-05-09 07:29 13.31080 77.56226 7787 ft 268 kts 271°
2026-05-09 07:29 13.31113 77.54367 7346 ft 254 kts 272°
2026-05-09 07:30 13.31142 77.52598 7035 ft 242 kts 271°
2026-05-09 07:30 13.31156 77.50918 6924 ft 230 kts 271°
2026-05-09 07:30 13.31173 77.49295 6683 ft 226 kts 271°
2026-05-09 07:30 13.31167 77.47683 6499 ft 227 kts 265°
2026-05-09 07:31 13.30586 77.46203 6217 ft 228 kts 226°
2026-05-09 07:31 13.29247 77.45459 6067 ft 216 kts 187°
2026-05-09 07:31 13.27790 77.45342 5986 ft 205 kts 183°
2026-05-09 07:31 13.26423 77.45074 5995 ft 196 kts 189°
2026-05-09 07:32 13.25061 77.44811 5996 ft 199 kts 187°
2026-05-09 07:32 13.23721 77.44634 5961 ft 192 kts 172°
2026-05-09 07:32 13.22520 77.45112 5999 ft 189 kts 142°
2026-05-09 07:32 13.21542 77.45998 5972 ft 187 kts 127°
2026-05-09 07:33 13.21100 77.47199 6004 ft 180 kts 95°
2026-05-09 07:33 13.20920 77.49704 5988 ft 172 kts 92°
2026-05-09 07:33 13.20881 77.50902 5988 ft 165 kts 90°
2026-05-09 07:34 13.20860 77.52092 5991 ft 168 kts 90°
2026-05-09 07:34 13.20849 77.53287 5816 ft 166 kts 90°
2026-05-09 07:34 13.20836 77.54441 5602 ft 159 kts 90°
2026-05-09 07:34 13.20827 77.55550 5417 ft 151 kts 90°
2026-05-09 07:35 13.20817 77.56625 5238 ft 152 kts 90°
2026-05-09 07:35 13.20809 77.57675 5075 ft 148 kts 90°
2026-05-09 07:35 13.20799 77.58766 4854 ft 151 kts 90°
2026-05-09 07:35 13.20790 77.59833 4659 ft 150 kts 90°
2026-05-09 07:36 13.20781 77.60869 4515 ft 146 kts 89°
2026-05-09 07:36 13.20798 77.61922 4394 ft 150 kts 88°
2026-05-09 07:36 13.20801 77.62982 4239 ft 147 kts 91°
2026-05-09 07:36 13.20797 77.64050 3972 ft 150 kts 90°
2026-05-09 07:37 13.20800 77.65092 3619 ft 144 kts 91°
2026-05-09 07:37 13.20765 77.66127 3452 ft 147 kts 93°
2026-05-09 07:37 13.20736 77.67157 3310 ft 143 kts 91°
2026-05-09 07:37 13.20724 77.68203 3179 ft 138 kts 91°
2026-05-09 07:38 13.20720 77.69117 3016 ft 111 kts 91°
2026-05-09 07:38 13.20712 77.69723 3016 ft 74 kts 90°
2026-05-09 07:38 13.20706 77.70237 3016 ft 68 kts 90°
2026-05-09 07:38 13.20574 77.70665 3016 ft 61 kts 120°
2026-05-09 07:39 13.20527 77.71065 3016 ft 55 kts 91°
2026-05-09 07:39 13.20523 77.71321 3016 ft 52 kts 91°
2026-05-09 07:39 13.20520 77.71787 3017 ft 47 kts 91°
2026-05-09 07:39 13.20519 77.72056 3016 ft 20 kts 91°
2026-05-09 07:40 13.20485 77.72114 3016 ft 9 kts 155°
2026-05-09 07:40 13.20410 77.72115 3016 ft 13 kts 180°
2026-05-09 07:40 13.20300 77.72114 3016 ft 18 kts 181°
2026-05-09 07:40 13.20156 77.72112 3016 ft 23 kts 180°
2026-05-09 07:41 13.20026 77.72108 3016 ft 3 kts 204°
2026-05-09 07:41 13.20024 77.72084 3016 ft 4 kts 276°
2026-05-09 07:41 13.20026 77.72046 3016 ft 6 kts 270°
2026-05-09 07:41 13.20026 77.72020 3016 ft 0 kts 270°